Wind_Speed
3 3 5 7 7 6 3 1 4 8 8 8 7 9 11 12 11 7 9 9 8 14 14 14 14 16 18 18 18 18 17 16 13
5 7 6 7 7 7 5 3 2 3 4 5 6 7 9 10 11 10 11 11 10 12 13 14 14 15 17 17 17 17 17 17 15
6 5 6 7 6 6 5 5 5 5 6 6 8 8 9 10 11 12 11 12 14 12 15 17 16 16 17 16 19 18 18 19 18
2 4 6 6 7 7 6 6 6 6 7 9 9 9 10 13 14 13 10 8 12 12 16 17 16 18 19 19 19 21 22 21 21
5 5 5 6 7 7 7 7 7 8 9 10 10 10 12 14 14 13 13 12 12 14 15 17 18 19 20 22 22 22 23 25 24
3 5 6 7 7 7 7 8 9 10 10 10 11 13 15 16 17 18 19 20 20 19 19 21 22 22 22 23 24 25 25 26 26
5 8 8 7 8 8 8 8 9 10 11 12 14 16 17 18 19 20 21 22 24 24 26 26 26 27 27 26 26 26 26 27 28
8 6 6 7 8 8 9 10 12 13 14 15 17 19 21 22 23 24 23 23 24 25 27 29 29 28 28 27 28 28 29 28 28
3 5 7 10 11 11 13 13 15 15 15 17 18 18 18 19 21 22 23 24 25 24 26 27 29 31 30 29 28 30 31 31 32
5 5 7 8 8 10 11 12 13 15 15 15 17 18 19 22 19 19 21 24 25 25 27 27 28 29 30 31 31 29 30 34 36
9 8 8 7 7 9 10 11 15 16 18 17 18 20 19 17 19 22 24 24 25 25 24 22 24 25 26 28 30 29 31 31 34
9 7 5 5 8 10 12 15 17 18 18 17 17 19 20 20 21 23 25 24 24 23 24 25 24 23 24 27 25 27 29 34 33
7 8 5 9 10 10 12 14 13 15 17 20 20 21 22 22 23 24 23 20 19 19 19 21 22 24 23 23 23 23 30 35 35
10 6 8 9 8 8 10 13 17 19 22 23 24 24 22 18 15 12 14 16 19 22 24 26 28 27 28 31 29 27 25 27 27
3 1 2 6 9 12 14 16 18 21 23 23 24 23 17 15 17 19 16 17 24 26 23 22 25 27 28 28 32 32 34 36 36
3 5 8 11 14 16 18 19 20 20 23 26 29 26 18 10 4 12 25 24 23 19 25 31 29 29 30 33 35 38 41 40 38
7 10 13 15 16 17 18 19 20 20 21 23 24 16 23 6 37 16 31 26 20 30 30 30 35 32 34 34 32 30 33 35 32
10 13 15 16 18 18 18 17 19 20 20 20 14 10 9 39 16 34 23 21 32 31 35 34 35 29 28 29 33 38 40 30 29
12 15 17 18 18 17 17 16 17 19 21 23 21 17 20 16 20 19 42 31 40 39 39 36 37 28 32 36 32 35 28 33 36
14 17 18 18 18 16 16 17 18 20 21 22 25 28 30 28 26 31 27 40 40 42 38 44 33 39 28 36 28 38 41 34 34
Wind_Direction
352 41 44 26 27 21 5 320 269 272 289 296 301 296 297 310 307 290 271 260 248 253 270 276 259 252 256 255 261 266 270 273 271
352 22 23 28 26 27 21 3 333 306 317 325 323 312 312 310 307 295 271 254 253 270 262 266 272 259 264 267 265 268 270 271 268
268 351 3 20 19 25 26 20 9 1 344 341 342 342 338 332 326 315 303 273 265 264 269 275 272 271 269 265 273 271 273 270 269
22 14 14 13 15 6 4 359 354 346 338 340 339 339 341 337 330 325 320 305 283 285 272 281 287 279 272 268 266 273 279 275 271
47 47 25 359 355 352 349 345 344 343 342 338 335 330 333 339 339 338 332 323 314 306 281 293 296 289 281 274 267 265 265 277 277
49 28 1 351 347 342 342 341 342 342 344 346 334 326 331 328 327 325 327 325 323 317 303 294 295 296 294 287 279 270 263 261 266
358 341 337 344 347 342 342 341 340 339 338 340 338 337 336 331 328 324 324 317 314 305 305 303 302 302 298 293 288 283 276 266 263
313 311 326 339 341 342 337 335 338 337 336 335 334 331 322 320 317 315 312 309 307 305 303 301 304 305 304 300 292 284 281 279 274
327 333 329 326 328 332 333 331 331 328 325 320 316 306 304 308 308 306 305 306 306 302 299 298 297 298 297 296 288 284 284 282 278
248 261 277 295 310 325 324 318 312 309 310 304 304 304 305 297 298 303 297 297 295 295 294 293 293 290 288 288 285 285 285 282 280
243 254 267 288 303 297 292 294 295 295 291 290 293 294 294 293 290 290 293 292 291 292 293 297 293 292 291 293 292 292 293 291 284
246 252 252 277 279 285 285 288 292 293 295 298 298 294 291 293 295 296 292 290 290 289 293 290 290 293 292 285 289 293 296 298 291
242 245 244 265 273 278 285 293 302 306 306 307 306 303 302 302 296 290 290 295 300 300 296 293 288 290 293 293 294 292 289 288 287
252 239 258 274 291 306 309 313 317 317 314 315 313 316 317 313 302 302 307 301 300 297 295 295 295 296 292 290 289 288 290 289 291
252 243 337 329 326 323 321 322 325 326 322 321 320 321 323 316 293 298 301 298 305 304 302 302 299 295 293 290 292 291 293 290 292
66 13 352 340 334 333 328 326 327 329 329 329 329 336 333 308 310 307 300 309 312 309 306 304 304 301 294 291 288 288 289 293 292
23 3 351 346 340 335 333 336 338 341 345 344 344 339 340 302 321 323 322 319 315 309 308 304 307 305 297 294 295 294 293 290 300
11 3 358 350 344 339 339 339 340 341 342 346 352 339 316 323 324 314 324 309 308 312 313 314 317 315 305 299 295 293 299 309 305
0 354 348 345 342 340 341 343 341 339 338 338 333 328 321 319 318 305 316 320 314 320 319 317 319 311 299 299 298 302 303 304 300
350 344 340 339 340 340 340 341 341 341 337 335 329 325 323 322 312 310 308 314 316 316 317 315 311 307 308 302 296 296 302 302 299
Height
1509 1509 1509 1510 1509 1509 1509 1509 1509 1509 1509 1508 1508 1507 1507 1506 1507 1507 1507 1506 1506 1506 1506 1505 1505 1506 1506 1506 1506 1505 1505 1504 1504
1509 1509 1509 1509 1509 1509 1509 1508 1508 1507 1507 1507 1506 1506 1505 1505 1505 1504 1504 1504 1503 1504 1504 1504 1502 1503 1503 1503 1503 1503 1502 1502 1502
1509 1509 1509 1508 1509 1508 1508 1508 1507 1506 1507 1506 1506 1505 1505 1505 1504 1503 1502 1502 1501 1502 1503 1501 1501 1500 1500 1501 1500 1500 1500 1499 1499
1509 1509 1509 1509 1509 1509 1508 1508 1507 1507 1506 1506 1506 1505 1504 1503 1503 1502 1501 1500 1500 1499 1500 1498 1498 1497 1497 1497 1497 1497 1497 1496 1496
1509 1509 1509 1509 1509 1509 1508 1508 1507 1507 1507 1506 1505 1504 1503 1502 1502 1501 1500 1499 1498 1497 1497 1496 1495 1494 1494 1493 1493 1494 1494 1493 1492
1508 1508 1508 1508 1508 1508 1508 1507 1507 1506 1506 1505 1504 1503 1502 1501 1500 1499 1498 1497 1496 1495 1495 1494 1493 1492 1490 1489 1488 1488 1489 1489 1489
1507 1508 1508 1508 1508 1507 1507 1507 1506 1505 1504 1503 1502 1501 1500 1499 1498 1496 1495 1494 1492 1492 1491 1490 1489 1488 1486 1485 1484 1483 1482 1483 1483
1507 1508 1508 1508 1507 1506 1506 1505 1504 1503 1501 1500 1499 1498 1497 1496 1494 1493 1492 1491 1490 1488 1487 1485 1483 1482 1481 1479 1478 1477 1476 1476 1476
1508 1507 1507 1506 1505 1504 1504 1502 1502 1501 1499 1498 1497 1496 1494 1492 1491 1490 1489 1487 1485 1484 1483 1481 1479 1477 1475 1473 1473 1471 1470 1469 1469
1505 1505 1505 1504 1503 1502 1502 1501 1500 1498 1497 1496 1494 1492 1490 1489 1487 1486 1484 1482 1481 1479 1478 1476 1474 1472 1470 1468 1466 1465 1464 1463 1461
1504 1504 1503 1503 1502 1501 1499 1497 1496 1494 1492 1490 1489 1488 1485 1484 1482 1480 1478 1476 1475 1473 1471 1470 1469 1467 1465 1463 1460 1459 1457 1456 1454
1502 1501 1501 1500 1499 1498 1496 1495 1493 1491 1489 1487 1485 1483 1481 1479 1476 1474 1471 1469 1468 1466 1465 1463 1461 1459 1457 1456 1454 1452 1451 1449 1447
1499 1499 1499 1497 1496 1495 1493 1492 1490 1487 1484 1482 1480 1477 1475 1473 1470 1467 1465 1464 1462 1461 1459 1457 1456 1455 1452 1450 1448 1447 1445 1442 1439
1498 1498 1497 1496 1495 1493 1491 1489 1486 1482 1479 1476 1473 1471 1470 1466 1463 1462 1461 1460 1458 1456 1454 1452 1450 1448 1446 1444 1442 1439 1437 1434 1431
1498 1497 1496 1495 1493 1491 1489 1486 1483 1478 1474 1471 1468 1466 1464 1461 1459 1458 1457 1455 1453 1450 1448 1445 1443 1441 1439 1436 1433 1431 1428 1426 1423
1497 1497 1495 1493 1491 1488 1485 1482 1479 1476 1471 1466 1461 1459 1457 1454 1454 1454 1452 1450 1446 1445 1442 1439 1436 1433 1430 1427 1425 1422 1419 1417 1414
1496 1495 1493 1491 1488 1485 1482 1478 1475 1473 1468 1464 1458 1452 1450 1451 1449 1446 1445 1442 1440 1438 1435 1433 1429 1426 1422 1419 1416 1414 1411 1408 1406
1494 1492 1490 1488 1485 1482 1479 1476 1472 1469 1468 1465 1463 1457 1453 1444 1443 1441 1440 1438 1435 1432 1428 1425 1421 1418 1415 1412 1409 1406 1402 1399 1397
1492 1490 1487 1485 1482 1479 1477 1474 1471 1468 1465 1463 1461 1461 1457 1450 1437 1435 1433 1431 1427 1423 1419 1416 1413 1411 1408 1405 1401 1397 1394 1391 1389
1489 1487 1484 1481 1479 1477 1474 1471 1469 1466 1463 1460 1457 1454 1450 1447 1442 1428 1426 1424 1421 1416 1413 1409 1406 1403 1400 1396 1392 1390 1385 1382 1379